weather.gov     
National Weather Service

Terminal Aerodrome Forecast
NWS Homepage
This page is being discontinued on March 12, 2014.
The same data is available at this site. Please update your bookmarks.
Thank you, and we apologize for the inconvenience.
Please send an email to SR-SRH.Webmaster@noaa.gov with any concerns.


Current Version
Previous Version:    01  02  03  04  05  06  07  08  09  10  11  12  13  14  15  16  17  18  19  20  21  22  23  24  25  26  27  28  29  30  
   31  32  33  34  35  
[Printable]
313
FTUS45 KRIW 240700 AAA
TAFJAC
TAF AMD
KJAC 240742Z 2408/2506 VRB06KT 3/4SM -SN OVC008
     FM240900 21009KT 2SM -SN SCT014 OVC020
     FM241100 26012G18KT 5SM -SN BLSN SCT025 BKN035
     FM241900 21010KT P6SM FEW020 SCT060
     FM250400 19007KT P6SM VCSH SCT030 BKN045
      AMD LTD TO CLD VIS AND WIND=


U.S. Dept. of Commerce
NOAA National Weather Service
1325 East West Highway
Silver Spring, MD 20910
E-mail: w-nws.webmaster@noaa.gov
Page last modified: May 16, 2007
NATIONAL WEATHER SERVICE: for Safety, for Work, for Fun - FOR LIFE